FW8055 Weather Reports


time (UTC)temp
C
wind
direction
speed
KPH
gust
KPH
rain 1hr
cm
rain 24hr
cm
rain mn
cm
humidity
%
barometer
mb
20260905001558 13 0 0.0 0.0 0.13 1.07 0.97 94 1014.3
20260905000055 14 0 0.0 0.0 0.10 0.99 0.89 94 1014.2
20260904234558 14 0 0.0 0.0 0.15 0.94 0.84 93 1014.2
20260904233052 14 0 0.0 0.0 0.20 0.94 0.84 94 1014.1
20260904231559 14 0 0.0 0.0 0.28 0.94 0.84 93 1014.1
20260904230055 14 0 0.0 4.8 0.28 0.89 0.79 92 1014.1
20260904224604 15 0 0.0 1.6 0.20 0.84 0.69 93 1014.0
20260904223104 15 0 0.0 3.2 0.20 0.79 0.64 93 1013.9
20260904221600 15 0 0.0 0.0 0.18 0.71 0.56 93 1013.8
20260904220058 15 0 0.0 1.6 0.15 0.66 0.51 92 1013.7
20260904214553 15 0 0.0 0.0 0.10 0.74 0.46 92 1013.6
20260904213055 15 0 0.0 0.0 0.05 0.69 0.41 91 1013.6
20260904211554 15 0 0.0 0.0 0.03 0.66 0.38 90 1013.5
20260904210106 16 0 0.0 1.6 0.00 0.64 0.36 88 1013.2
20260904204556 16 0 0.0 1.6 0.00 0.64 0.36 88 1013.2
20260904203056 16 0 0.0 1.6 0.00 0.64 0.36 87 1013.0
20260904201610 16 0 0.0 1.6 0.00 0.64 0.36 85 1013.0
20260904200052 16 0 0.0 4.8 0.00 0.64 0.36 85 1013.0
20260904194608 16 0 0.0 4.8 0.00 0.64 0.36 85 1013.1
20260904193054 16 217 0.0 3.2 0.00 0.64 0.36 85 1013.1
20260904191557 16 0 0.0 8.0 0.00 0.64 0.36 87 1013.1
20260904184600 15 0 0.0 3.2 0.03 0.64 0.36 89 1013.1
20260904183054 15 0 0.0 8.0 0.03 0.64 0.36 89 1013.1
20260904181553 14 0 0.0 3.2 0.03 0.64 0.36 93 1013.0
20260904180059 13 0 0.0 6.4 0.03 0.64 0.36 92 1012.8
20260904174552 13 232 1.6 4.8 0.05 0.61 0.33 92 1012.8
20260904173127 13 0 0.0 3.2 0.08 0.61 0.33 93 1012.8
20260904171608 13 0 0.0 1.6 0.08 0.61 0.33 92 1012.8
20260904170058 13 0 0.0 4.8 0.08 0.61 0.33 91 1012.5
20260904164605 13 0 0.0 1.6 0.03 0.56 0.28 89 1012.5
20260904163101 13 0 0.0 4.8 0.00 0.53 0.25 87 1012.4
20260904161557 13 0 0.0 12.9 0.00 0.53 0.25 89 1012.1
20260904160055 13 0 1.6 9.7 0.00 0.53 0.25 88 1012.1
20260904154553 12 0 1.6 6.4 0.00 0.53 0.25 90 1012.1
20260904153101 12 0 0.0 1.6 0.00 0.53 0.25 95 1012.0
20260904151605 12 0 0.0 1.6 0.00 0.53 0.25 95 1011.9
20260904150113 12 0 0.0 0.0 0.00 0.53 0.25 95 1011.8
20260904144603 11 0 0.0 3.2 0.00 0.53 0.25 95 1011.7
20260904143101 11 0 0.0 0.0 0.00 0.53 0.25 95 1011.5
20260904141606 11 0 0.0 0.0 0.00 0.53 0.25 94 1011.3
20260904140106 11 0 0.0 0.0 0.00 0.53 0.25 94 1011.2
20260904134559 11 0 0.0 0.0 0.00 0.53 0.25 95 1011.0
20260904133058 11 0 0.0 0.0 0.00 0.53 0.25 95 1010.8
20260904131557 11 0 0.0 0.0 0.00 0.53 0.25 94 1010.7
20260904130053 11 0 0.0 0.0 0.00 0.53 0.25 94 1010.6
20260904124603 11 0 0.0 0.0 0.00 0.53 0.25 94 1010.6
20260904123057 11 0 0.0 0.0 0.00 0.53 0.25 94 1010.5
20260904121600 11 0 0.0 1.6 0.00 0.53 0.25 94 1010.4
20260904120108 11 0 0.0 3.2 0.00 0.53 0.25 94 1010.4
20260904114556 11 0 0.0 4.8 0.00 0.53 0.25 94 1010.4
20260904113055 11 0 0.0 6.4 0.00 0.53 0.25 93 1010.2
20260904111552 11 0 0.0 4.8 0.03 0.53 0.25 93 1010.1
20260904104556 12 211 0.0 4.8 0.05 0.53 0.25 94 1009.8
20260904103055 12 0 0.0 3.2 0.05 0.53 0.25 93 1009.9
20260904101555 12 248 1.6 4.8 0.03 0.51 0.23 93 1010.0
20260904100052 12 213 0.0 6.4 0.03 0.51 0.23 93 1009.8
20260904094602 12 242 1.6 8.0 0.03 0.48 0.20 92 1009.8
20260904093105 12 196 1.6 11.3 0.05 0.48 0.20 92 1009.9
20260904091554 12 233 1.6 9.7 0.08 0.48 0.20 92 1009.9
20260904090050 12 168 1.6 8.0 0.08 0.48 0.20 92 1009.9
20260904084558 12 0 0.0 6.4 0.08 0.46 0.18 92 1010.1
20260904083057 12 242 3.2 11.3 0.10 0.43 0.15 92 1010.0
20260904081551 12 0 1.6 6.4 0.13 0.41 0.13 92 1010.0
20260904080059 12 0 0.0 4.8 0.13 0.41 0.13 92 1009.8
20260904074556 12 0 0.0 1.6 0.10 0.41 0.10 91 1010.2
20260904073053 12 0 0.0 6.4 0.05 0.36 0.05 90 1010.3
20260904071553 12 0 1.6 12.9 0.00 0.30 0.00 88 1009.9
20260904070106 12 179 3.2 12.9 0.00 0.30 0.00 88 1009.6
20260904064555 12 213 3.2 9.7 0.00 0.30 0.30 87 1009.7
20260904063059 12 234 0.0 6.4 0.00 0.30 0.30 88 1009.7
20260904061553 12 221 0.0 4.8 0.03 0.30 0.30 89 1009.7
20260904054601 12 217 0.0 8.0 0.05 0.30 0.30 90 1009.9
20260904053056 12 0 0.0 4.8 0.05 0.30 0.30 91 1010.1
20260904051558 13 0 1.6 6.4 0.03 0.28 0.28 90 1010.2
20260904050059 13 231 3.2 12.9 0.03 0.28 0.28 88 1010.3
20260904044553 13 0 1.6 6.4 0.00 0.25 0.25 89 1010.4
20260904043054 13 213 1.6 4.8 0.00 0.25 0.25 90 1010.3
20260904041600 13 0 0.0 3.2 0.00 0.25 0.25 91 1010.2
20260904040104 13 0 0.0 4.8 0.00 0.25 0.25 91 1010.4
20260904034555 13 0 0.0 3.2 0.00 0.25 0.25 92 1010.4
20260904033101 13 0 0.0 3.2 0.00 0.25 0.25 91 1010.2
20260904031557 13 246 0.0 3.2 0.00 0.25 0.25 91 1010.1
20260904030058 13 250 0.0 4.8 0.00 0.25 0.25 91 1010.1
20260904024556 13 0 0.0 3.2 0.00 0.25 0.25 91 1010.0
20260904023104 13 0 0.0 4.8 0.03 0.25 0.25 90 1010.0
20260904021605 13 0 0.0 4.8 0.03 0.25 0.25 90 1010.1
20260904020055 13 217 0.0 4.8 0.03 0.25 0.25 91 1010.2
20260904014559 13 0 0.0 1.6 0.05 0.25 0.25 90 1010.3
20260904013054 13 0 0.0 3.2 0.03 0.23 0.23 90 1010.4
20260904011556 13 0 0.0 3.2 0.03 0.23 0.23 88 1010.4
20260904010052 14 0 0.0 4.8 0.03 0.23 0.23 85 1010.3
20260904004556 15 0 0.0 14.5 0.00 0.58 0.20 82 1010.3
20260904003053 15 0 0.0 3.2 0.00 0.58 0.20 83 1010.3